SL-14 DEB, 45280

Orbit data source: Space-Track

SL-14 DEB, 45280 is space debris in LEO originally from a launch on Thu, 15 Aug 1991 UTC launched from the Plesetsk Missile And Space Complex (PKMTR). Debris objects in space refer to the collection of defunct objects orbiting the Earth. Examples of debris include non-operational satellites, rocket bodies, and fragments generated from explosions, collisions, or faulty payload assembly.

Loading next visibility...
Identifier
45280, 1991-056S
Orbit
LEO
Country
Flag of CISCIS
Related business
Manufacturer
Unknown
Mission
Spacecraft
Bus & Motor
Unknown
Mass
Unknown
Launch date (UTC)
1991-08-15 (34 years ago)
Launch vehicle
Unknown
Launch site
Plesetsk Missile And Space Complex (PKMTR)
Object type
Payload
Rocket body
Debris
Shape & HBR
Unknown shape, 0.1 m
Radar Cross Section
Small (<0.1 m²)

Expand to show TLE details & history
Last TLE update: 1 day ago

TLE from 1 day ago
0 SL-14 DEB
1 45280U 91056S   26035.65464935  .00001285  00000-0  30854-2 0  9996
2 45280  82.5859 237.4833 0021448 287.7568  72.1217 13.21631722287601
Epoch: 2026-02-04T15:42Z
TLE epoch observation values (Epoch: 2026-02-04T15:42:41.703Z)
Latitude
0.00002°
Longitude
-133.00858°
Altitude
1,176.364 km
Speed
7.268 km/s
True Right ascension
15h 49m 55s
True Declination
0° 00' 00"
Sunlit
Object was in daylight at epoch
Visualization orbit readout
Latitude
Unknown
Longitude
Unknown
Altitude
Unknown
Speed
Unknown
Apparent Right ascension
Unknown
Apparent Declination
Unknown
Sunlit
N/A
Visualization observer readout
Local Sidereal Time
23:35:31
Azimuth
Unknown
Elevation
Unknown
Doppler factor
Unknown
Orbital elements
Apogee altitude
1,191.932 km
Perigee altitude
1,159.529 km
Semi-major axis
7,553.868 km
Eccentricity
0.00214
Inclination
82.5859°
RAAN
237.4833°
Arg. of periapsis
287.7568°
True anomaly
72.3558°
Mean anomaly
72.1217°
Eccentric anomaly
72.23873°
Mean motion
3.3059 °/min
Orbital period
108.9 mins
BSTAR
0.0030854
Loading maneuver chart data...
Computing Atmospheric mass density...
Loading historical data...
Loading historical data...
Loading historical data...
Loading historical data...
Loading historical data...
Loading historical data...
Loading historical data...

Documentation

Showing up to 5 results
|